Terminal Aerodrome Forecast
Issued by NWS Cleveland, OH

Home | Current Version | Previous Version | Text Only | Print | Product List | Glossary Off
Versions: 1 2 3 4 5 6 7 8 9 10 11 12 13 14 15 16 17 18 19 20 21 22

268
FTUS41 KCLE 261702 AAB
TAFCAK
TAF AMD
KCAK 261702Z 2617/2712 29010KT P6SM SCT009 OVC015
      TEMPO 2617/2619 5SM -SHRA OVC009
     FM261900 29008KT P6SM BKN035
     FM270200 13005KT P6SM OVC030=

USA.gov is the U.S. government's official web portal to all federal, state and local government web resources and services.